Location: Brachbach
(49.1847°N, 9.7240°E)
Time: 13:59:54
(UTC+00:00)

CZ-2C R/B - Pass Details

Date: 08 August 2024
Orbit: 782 x 869 km, 98.3° (Epoch: 15 September)

Event Time Altitude Azimuth Distance (km) Brightness Sun altitude
Exits shadow 01:27:59 33° 188° (S) 1,399 3.3 -19.5°
Maximum altitude 01:30:26 64° 258° (WSW) 942 2.7 -19.3°
Drops below altitude 10° 01:35:54 10° 340° (NNW) 2,469 5.6 -18.8°
Sets 01:38:16 0° 344° (NNW) 3,395 6.5 -18.6°
